Flag for Argentina Weather past 2 weeks in Buenos Aires, Argentina

Now
68 °F

Passing clouds.


Feels Like: 68 °F
Forecast: 64 / 68 °F
Wind: 6 mph from Northeast

Location: Buenos Aires Airport

Current Time: Aug 22, 2014 at 1:53:19 AM

Latest Report: Aug 22, 2014 at 1:00 AM


Visibility: N/A

Pressure: 29.89 "Hg

Humidity: 78%

Dew point: 61 °F

Location of Buenos AiresLocation

Historic Weather in Buenos Aires — Graph

°F

Buenos Aires temperature yesterday

Maximum temperature yesterday: 77 °F (at 4:00 PM)
Minimum temperature yesterday: 64 °F (at 12:00 AM)
Average temperature yesterday: 68 °F

Past Weeks' High & Low Weather Summary

 TemperatureHumidityPressure
High77 °F (Aug 21, 4:00 PM)100% (Aug 17, 6:00 AM)30.42 "Hg (Aug 17, 6:00 AM)
Low43 °F (Aug 13, 5:00 AM)13% (Aug 13, 4:00 PM)29.83 "Hg (Aug 21, 4:00 PM)
Average58 °F63%30.14 "Hg
* Reported Aug 7 1:00 AM — Aug 22 1:00 AM, Buenos Aires, Weather by CustomWeather, © 2014

Note: Actual official high and low records may vary slightly from our data, if they occured in-between our weather recording intervals... More about our weather records

Advertising

Buenos Aires weather history for previous 24 hours

 ConditionsComfort  
Time TempWeatherWind HumidityBarometerVisibility
1:00 AM
Aug 22
68 °FPassing clouds.6 mph78%29.89 "HgN/A
12:00 AM68 °FPassing clouds.6 mph73%29.89 "HgN/A
11:00 PM
Aug 21
70 °FPassing clouds.6 mph69%29.86 "HgN/A
10:00 PM72 °FPassing clouds.2 mph65%29.86 "HgN/A
8:00 PM72 °FClear.3 mph69%29.83 "Hg10 mi
7:00 PM72 °FPassing clouds.3 mph69%29.83 "HgN/A
6:00 PM77 °FPassing clouds.6 mph61%29.83 "HgN/A
5:00 PM75 °FPassing clouds.8 mph65%29.83 "HgN/A
4:00 PM77 °FPassing clouds.5 mph61%29.83 "HgN/A
3:00 PM75 °FPassing clouds.7 mph65%29.86 "HgN/A
2:00 PM72 °FSunny.5 mph73%29.86 "Hg10 mi
1:00 PM68 °FSunny.3 mph78%29.89 "Hg10 mi
12:00 PM68 °FSunny.3 mph78%29.92 "Hg10 mi
11:00 AM68 °FSunny.2 mph78%29.92 "Hg10 mi
10:00 AM66 °FSunny.3 mph83%29.95 "Hg10 mi
9:00 AM64 °FSunny.3 mph88%29.95 "Hg10 mi
8:00 AM64 °FSunny.5 mph88%29.95 "Hg10 mi
7:00 AM64 °FSunny.3 mph88%29.95 "Hg10 mi
6:00 AM64 °FClear.3 mph88%29.92 "Hg10 mi
5:00 AM64 °FClear.5 mph88%29.92 "Hg10 mi
4:00 AM64 °FClear.2 mph88%29.92 "Hg10 mi
3:00 AM64 °FClear.2 mph88%29.95 "Hg10 mi
2:00 AM64 °FClear.2 mph88%29.95 "Hg10 mi
1:00 AM64 °FClear.2 mph88%29.95 "Hg10 mi
Weather by CustomWeather, © 2014

See weather overviewHow to use our weather pages